Weather History for St. Joseph, MO

Change the Weather History Date:

Thursday, February 14, 2013

  Actual Average Record
Temperature  
Mean Temperature 41 °F 32 °F  
Max Temperature 50 °F 42 °F 75 °F (1954)
Min Temperature 32 °F 21 °F -10 °F (1936)
Degree Days  
Heating Degree Days 24 33  
Month to date heating degree days 413 488  
Since 1 July heating degree days 3574 3871  
Cooling Degree Days 0 0  
Month to date cooling degree days 0 0  
Year to date cooling degree days 0 0  
Moisture  
Dew Point 26 °F    
Average Humidity 54    
Maximum Humidity 70    
Minimum Humidity 37    
Precipitation  
Precipitation T in 0.03 in 0.70 in (1908)
Month to date precipitation 0.05 0.43  
Year to date precipitation 0.69 0.99  
Sea Level Pressure  
Sea Level Pressure 30.02 in    
Wind  
Wind Speed 13 mph (NW)    
Max Wind Speed 25 mph    
Max Gust Speed 31 mph    
Visibility 10 miles    
Events Rain , Snow    
T = Trace of Precipitation, MM = Missing Value Source: NWS Daily Summary

Daily Weather History Graph

Daily Weather History Graph

Search for Another Location

Airport:

Trip Planner

Search our weather history database for the weather conditions in past years. The results will help you decide how hot, cold, wet, or windy it might be!

Date:

Astronomy

Feb. 14, 2013 Rise Set
Actual Time 7:13 AM CST 5:55 PM CST
Civil Twilight 6:45 AM CST 6:22 PM CST
Nautical Twilight 6:13 AM CST 6:54 PM CST
Astronomical Twilight 5:42 AM CST 7:25 PM CST
Moon 9:16 AM CST (2/14) 10:58 PM CST (2/14)
Length of Visible Light 11h 37m
Length of Day
10h 42m
Waxing Crescent, 22% of the Moon is Illuminated
Feb 14
Waxing Crescent
Feb 17
First Quarter
Feb 25
Full
Mar 4
Last Quarter
Mar 11
New

Hourly Weather History & Observations

Time (CST) Temp. Windchill Dew Point Humidity Pressure Visibility Wind Dir Wind Speed Gust Speed Precip Events Conditions
12:53 AM 39.0 °F 34.8 °F 25.0 °F 57% 29.83 in 10.0 mi West 5.8 mph - N/A   Clear
1:53 AM 36.0 °F 31.1 °F 24.1 °F 62% 29.84 in 10.0 mi South 5.8 mph - N/A   Partly Cloudy
2:53 AM 36.0 °F - 25.0 °F 64% 29.86 in 10.0 mi Calm Calm - N/A   Overcast
3:53 AM 42.1 °F 35.2 °F 30.9 °F 65% 29.86 in 10.0 mi WNW 12.7 mph - 0.00 in Rain Light Rain
4:53 AM 39.9 °F 32.1 °F 30.0 °F 68% 29.89 in 10.0 mi NW 13.8 mph - 0.00 in   Clear
5:53 AM 39.0 °F 29.6 °F 28.9 °F 67% 29.91 in 10.0 mi NW 18.4 mph - N/A   Clear
6:53 AM 37.9 °F 29.2 °F 28.9 °F 70% 29.94 in 10.0 mi NW 15.0 mph - N/A   Clear
7:53 AM 39.0 °F 29.6 °F 28.9 °F 67% 29.97 in 10.0 mi NW 18.4 mph 24.2 mph N/A   Clear
8:53 AM 41.0 °F 34.3 °F 30.0 °F 65% 30.01 in 10.0 mi NNW 11.5 mph - N/A   Clear
9:53 AM 44.1 °F 37.1 °F 30.0 °F 58% 30.00 in 10.0 mi NNW 15.0 mph 21.9 mph N/A   Clear
10:53 AM 46.9 °F - 28.0 °F 48% 30.02 in 10.0 mi NNW 17.3 mph - N/A   Clear
11:53 AM 48.0 °F - 28.9 °F 48% 30.04 in 10.0 mi WNW 12.7 mph - N/A   Clear
12:53 PM 48.9 °F - 28.9 °F 46% 30.03 in 10.0 mi NW 19.6 mph 26.5 mph N/A   Partly Cloudy
1:53 PM 50.0 °F - 28.9 °F 44% 30.02 in 10.0 mi WNW 11.5 mph - N/A   Partly Cloudy
2:53 PM 50.0 °F - 26.1 °F 39% 30.03 in 10.0 mi NW 18.4 mph 23.0 mph N/A   Partly Cloudy
3:53 PM 48.0 °F - 24.1 °F 39% 30.06 in 10.0 mi NW 20.7 mph - N/A   Clear
4:53 PM 46.0 °F 37.8 °F 21.9 °F 39% 30.08 in 10.0 mi NNW 23.0 mph 31.1 mph N/A   Mostly Cloudy
5:53 PM 44.1 °F 37.7 °F 21.0 °F 40% 30.10 in 10.0 mi NW 12.7 mph - N/A   Scattered Clouds
6:53 PM 39.0 °F 33.4 °F 21.0 °F 49% 30.11 in 10.0 mi WNW 8.1 mph - N/A   Mostly Cloudy
7:53 PM 39.9 °F 33.9 °F 21.0 °F 47% 30.13 in 10.0 mi NW 9.2 mph - N/A   Overcast
8:53 PM 37.0 °F 29.8 °F 19.9 °F 50% 30.14 in 10.0 mi WNW 10.4 mph - N/A   Clear
9:53 PM 35.1 °F 27.9 °F 21.9 °F 59% 30.17 in 10.0 mi NNW 9.2 mph - N/A   Scattered Clouds
10:53 PM 35.1 °F 27.9 °F 26.1 °F 70% 30.18 in 10.0 mi NNW 9.2 mph - N/A   Overcast
11:32 PM 35.6 °F 25.9 °F 28.4 °F 75% 30.18 in 9.0 mi NNW 16.1 mph 20.7 mph N/A   Overcast
11:53 PM 34.0 °F 23.0 °F 28.9 °F 82% 30.21 in 7.0 mi North 18.4 mph 23.0 mph 0.00 in Snow Light Snow